Weather in Shurab

Tajikistan     40°02′48″N   70°32′38″E
temp.,
°C
wind,
m/s
gust,
m/s
humid.,
%
clouds,
%
prec.,
mm/h
press.,
hPa
HPBL,
m
25 october, mon
mon2523:00+5s01290 0.0 101710
02:00+5sse11260 0.0 101610
05:00+4ese11270 0.0 101610
08:00+7s01250 0.0 101810
11:00+13ne22180 0.0 1017420
14:00+15ne32150 0.0 1015608
17:00+12ne22210 0.0 101611
20:00+8w11250 0.0 101710
26 october, tue
tue2623:00+7wnw11274 0.0 101710
02:00+6w1129100 0.0 101810
05:00+6s1128100 0.0 101810
08:00+9wsw1123100 0.0 102010
11:00+13nne211790 0.0 1020672
14:00+14nne221886 0.0 1019848
17:00+12nne12235 0.0 102013
20:00+8sse11290 0.0 102210
27 october, wed
wed2723:00+7ssw113080 0.0 102310
02:00+6sw113116 0.0 102310
05:00+6ssw113283 0.0 102410
08:00+9sse1128100 0.0 102410
11:00+13ne2221100 0.0 1024658
14:00+13ne2121100 0.0 1022893
17:00+11nne1127100 0.0 102217
20:00+9w1130100 0.0 102310
28 october, thu
thu2823:00+7se0133100 0.0 102310
02:00+7s1134100 0.0 102210
05:00+7sw1134100 0.0 102213
08:00+8wsw4535100 0.0 1024172
11:00+11wnw3229100 0.0 10231069
14:00+11wnw4331100 0.0 10211429
17:00+7w775447 0.0 1023548
20:00+5wsw457133 0.0 1026161
29 october, fri
fri2923:00+5wsw336617 0.0 102633
02:00+4wsw22665 0.0 102616
05:00+2wsw11734 0.0 102711
08:00+5nne00622 0.0 102960
11:00+8ne21503 0.0 1027842
14:00+10ne22438 0.0 10261261
17:00+9ne22488 0.0 1027152
20:00+5sse11621 0.0 102910